CZ-2D DEB

Satellite information

Favourite Embed

Satellite Type and Status

DEBRISIN ORBIT

Key statistics

Satellite CZ-2D DEB at a glance.

Uptime

4770

Days in orbit

Revolutions

≈ 14.4

Per day

Orbit

SSO

Sun Synchronous Orbit

Inclination

98.0

Latest

Satellite identification and parameters

Extended collection of information and parameters for CZ-2D DEB.

Object identification

Identified? True

Debris? True

Object name: CZ-2D DEB

International designator: 2012-052C

Object number (NORAD): 43403

Object ID (CCSDS): 43403

Country: PEOPLES REPUBLIC OF CHINA (PRC)

Current information (Y/N): Y

RCS size: SMALL

Orbital parameters

Period: 99.933 minutes

Inclination: 98.0257 deg

SMA: 7133.427 km

Apoapsis: 892.384 km

Periapsis: 618.199 km

RAAN: 32.3285 deg

Eccentricy: 0.01921827

Argument of periapsis: 312.0691 deg

Mean anomaly: 46.4287 deg

Mean motion: 14.40971746 rev/day

Mean motion (dot): 0.00003785 rev/day2

B* drag term: 0.00095786492 1/REarth

Two-line elements (TLE)

Creation date: Oct. 19, 2025, 10:30 a.m.

Reference frame: TEME

Reference center: EARTH

Epoch: Oct. 19, 2025, 12:10 a.m. UTC

TLE line 0: 0 CZ-2D DEB

TLE line 1: 1 43403U 12052C 25292.00705123 .00003785 00000-0 95786-3 0 9993

TLE line 2: 2 43403 98.0257 32.3285 0192183 312.0691 46.4287 14.40971746621548

Live tracking on map

Real-time ground track for satellite CZ-2D DEB.

In-orbit conjunctions

A list of the most updated potential collisions computed for object CZ-2D DEB.

Target Orbit TCA Probability of collision Miss distance Type
CZ-6A R/B SSO 2025-09-01 03:27:21 0.0001032053 427.0 (m) ROCKET BODY
CZ-6A DEB LEO 2025-01-27 22:13:24 0.002579132 93.0 (m) DEBRIS
COSMOS 2251 DEB LEO 2024-11-09 23:28:14 0.0001334439 196.0 (m) DEBRIS
METEOR 2-4 LEO 2024-08-02 21:49:29 0.0001726622 486.0 (m) PAYLOAD

Associated space launch

CZ-2D DEB was lifted into orbit during the mission ‘Long March 2D | VRSS-1’, on board a Long March 2D space rocket.

The launch took place on Sept. 29, 2012, 4:12 a.m. from Launch Area 4 (SLS-2 / 603).

For more information about the launch, click the button.

Launch to space Long March 2D | VRSS-1
Long March 2D | VRSS-1

Agency: N/A

Status: Launch Successful

Launch date: Sept. 29, 2012, 4:12 a.m. UTC

Rocket: Long March 2D

Launch pad: Launch Area 4 (SLS-2 / 603)

Location: Jiuquan Satellite Launch Center, People's Republic of China

...

Latest news about this satellite

There are no fresh news available about this satellite. Check back as we update our databases every day.


Newsletter sign-up

Weekly statistics, charts and insights to help you stay on top of the space industry.